| time (UTC) | temp F | wind direction | speed MPH | gust MPH | rain 1hr in | rain 24hr in | rain mn in | humidity % | barometer mb |
| 20260508063527 | 0 | 0.0 | 0.0 | 0.00 | 0.00 | 0.00 | 1015.8 | ||
| 20260508063026 | 0 | 0.0 | 0.0 | 0.00 | 0.00 | 0.00 | 1015.7 | ||
| 20260508062522 | 0 | 0.0 | 0.0 | 0.00 | 0.00 | 0.00 | 1015.8 | ||
| 20260508062019 | 0 | 0.0 | 0.0 | 0.00 | 0.00 | 0.00 | 1015.9 | ||
| 20260508061517 | 0 | 0.0 | 0.0 | 0.00 | 0.00 | 0.00 | 1016.0 | ||
| 20260508061013 | 0 | 0.0 | 0.0 | 0.00 | 0.00 | 0.00 | 1015.8 | ||
| 20260508060510 | 0 | 0.0 | 0.0 | 0.00 | 0.00 | 0.00 | 1015.7 | ||
| 20260508060007 | 0 | 0.0 | 0.0 | 0.00 | 0.00 | 0.00 | 1015.9 | ||
| 20260508055503 | 0 | 0.0 | 0.0 | 0.00 | 0.00 | 0.00 | 1015.7 | ||
| 20260508054959 | 36 | 257 | 0.0 | 0.0 | 0.00 | 0.00 | 0.00 | 97 | 1016.0 |
| 20260508054456 | 36 | 257 | 0.0 | 0.0 | 0.00 | 0.00 | 0.00 | 97 | 1016.0 |
| 20260508053953 | 36 | 258 | 0.0 | 0.0 | 0.00 | 0.00 | 0.00 | 97 | 1015.9 |
| 20260508053450 | 36 | 258 | 0.0 | 0.0 | 0.00 | 0.00 | 0.00 | 97 | 1016.0 |
| 20260508052948 | 36 | 258 | 0.0 | 0.0 | 0.00 | 0.00 | 0.00 | 97 | 1015.8 |
| 20260508052445 | 36 | 257 | 0.0 | 0.0 | 0.00 | 0.00 | 0.00 | 97 | 1015.9 |
| 20260508051942 | 36 | 257 | 0.0 | 0.0 | 0.00 | 0.00 | 0.00 | 97 | 1015.8 |
| 20260508051437 | 36 | 257 | 0.0 | 0.0 | 0.00 | 0.00 | 0.00 | 97 | 1015.8 |
| 20260508050933 | 37 | 257 | 0.0 | 0.0 | 0.00 | 0.00 | 0.00 | 97 | 1015.9 |
| 20260508050431 | 37 | 257 | 0.0 | 0.0 | 0.00 | 0.00 | 0.00 | 96 | 1016.0 |
| 20260508045926 | 37 | 257 | 0.0 | 0.0 | 0.00 | 0.00 | 0.00 | 96 | 1016.0 |
| 20260508045425 | 0 | 0.0 | 0.0 | 0.00 | 0.00 | 0.00 | 1016.0 | ||
| 20260508044922 | 0 | 0.0 | 0.0 | 0.00 | 0.00 | 0.00 | 1015.9 | ||
| 20260508044419 | 0 | 0.0 | 0.0 | 0.00 | 0.00 | 0.00 | 1015.7 | ||
| 20260508043914 | 0 | 0.0 | 0.0 | 0.00 | 0.00 | 0.00 | 1016.0 | ||
| 20260508043411 | 37 | 257 | 0.0 | 0.0 | 0.00 | 0.00 | 0.00 | 96 | 1015.9 |
| 20260508042908 | 37 | 257 | 0.0 | 0.0 | 0.00 | 0.00 | 0.00 | 96 | 1015.9 |
| 20260508042400 | 0 | 0.0 | 0.0 | 0.00 | 0.00 | 0.00 | 1015.9 | ||
| 20260508041856 | 0 | 0.0 | 0.0 | 0.00 | 0.00 | 0.00 | 1015.8 | ||
| 20260508041353 | 0 | 0.0 | 0.0 | 0.00 | 0.00 | 0.00 | 1015.6 | ||
| 20260508040849 | 0 | 0.0 | 0.0 | 0.00 | 0.00 | 0.00 | 1015.6 | ||
| 20260508040347 | 0 | 0.0 | 0.0 | 0.00 | 0.00 | 0.00 | 1015.6 | ||
| 20260508035844 | 0 | 0.0 | 0.0 | 0.00 | 0.01 | 0.01 | 1015.6 | ||
| 20260508035341 | 38 | 257 | 0.0 | 0.0 | 0.00 | 0.01 | 0.01 | 94 | 1015.6 |
| 20260508034838 | 38 | 257 | 0.0 | 0.0 | 0.00 | 0.01 | 0.01 | 94 | 1015.5 |
| 20260508034335 | 39 | 258 | 0.0 | 0.0 | 0.00 | 0.01 | 0.01 | 94 | 1015.6 |
| 20260508033832 | 39 | 258 | 0.0 | 0.0 | 0.00 | 0.01 | 0.01 | 94 | 1015.5 |
| 20260508033331 | 39 | 258 | 0.0 | 0.0 | 0.00 | 0.01 | 0.01 | 93 | 1015.5 |
| 20260508032828 | 39 | 258 | 0.0 | 0.0 | 0.00 | 0.01 | 0.01 | 93 | 1015.4 |
| 20260508032325 | 39 | 258 | 0.0 | 0.0 | 0.00 | 0.01 | 0.01 | 92 | 1015.5 |
| 20260508031822 | 39 | 257 | 0.0 | 0.0 | 0.00 | 0.01 | 0.01 | 91 | 1015.5 |
| 20260508031318 | 40 | 258 | 0.0 | 0.0 | 0.00 | 0.01 | 0.01 | 91 | 1015.4 |
| 20260508030814 | 40 | 257 | 0.0 | 0.0 | 0.00 | 0.01 | 0.01 | 91 | 1015.4 |
| 20260508030312 | 40 | 257 | 0.0 | 0.0 | 0.00 | 0.01 | 0.01 | 91 | 1015.6 |
| 20260508025808 | 40 | 257 | 0.0 | 0.0 | 0.00 | 0.01 | 0.01 | 91 | 1015.5 |
| 20260508025306 | 40 | 257 | 0.0 | 0.0 | 0.00 | 0.01 | 0.01 | 90 | 1015.3 |
| 20260508024801 | 41 | 257 | 0.0 | 0.0 | 0.00 | 0.01 | 0.01 | 90 | 1015.3 |
| 20260508024258 | 41 | 257 | 0.0 | 0.0 | 0.00 | 0.01 | 0.01 | 89 | 1015.3 |
| 20260508023755 | 41 | 257 | 0.0 | 0.0 | 0.00 | 0.01 | 0.01 | 88 | 1015.2 |
| 20260508023252 | 41 | 257 | 0.0 | 0.0 | 0.00 | 0.01 | 0.01 | 87 | 1015.1 |
| 20260508022748 | 42 | 257 | 0.0 | 0.0 | 0.00 | 0.01 | 0.01 | 87 | 1015.2 |
| 20260508022245 | 42 | 258 | 0.0 | 0.0 | 0.00 | 0.01 | 0.01 | 88 | 1015.1 |
| 20260508021742 | 42 | 258 | 0.0 | 0.0 | 0.00 | 0.01 | 0.01 | 88 | 1014.9 |
| 20260508021237 | 42 | 258 | 0.0 | 0.0 | 0.00 | 0.01 | 0.01 | 87 | 1014.7 |
| 20260508020735 | 43 | 258 | 0.0 | 0.0 | 0.00 | 0.01 | 0.01 | 85 | 1014.8 |
| 20260508020232 | 43 | 258 | 0.0 | 0.0 | 0.00 | 0.01 | 0.01 | 87 | 1014.7 |
| 20260508015729 | 43 | 258 | 0.0 | 0.0 | 0.00 | 0.01 | 0.01 | 87 | 1014.6 |
| 20260508015226 | 44 | 258 | 0.0 | 0.0 | 0.00 | 0.01 | 0.01 | 86 | 1014.5 |
| 20260508014723 | 44 | 258 | 0.0 | 0.0 | 0.00 | 0.01 | 0.01 | 85 | 1014.5 |
| 20260508014220 | 45 | 258 | 0.0 | 0.0 | 0.00 | 0.01 | 0.01 | 83 | 1014.4 |
| 20260508013716 | 45 | 258 | 0.0 | 0.0 | 0.00 | 0.01 | 0.01 | 83 | 1014.3 |
| 20260508013212 | 45 | 258 | 0.0 | 0.0 | 0.00 | 0.01 | 0.01 | 80 | 1014.2 |
| 20260508012710 | 46 | 258 | 0.0 | 0.0 | 0.00 | 0.01 | 0.01 | 78 | 1014.3 |
| 20260508012206 | 46 | 258 | 0.0 | 0.0 | 0.00 | 0.01 | 0.01 | 77 | 1014.0 |
| 20260508011705 | 46 | 258 | 0.0 | 0.0 | 0.00 | 0.01 | 0.01 | 74 | 1014.1 |
| 20260508011202 | 47 | 258 | 0.0 | 0.0 | 0.00 | 0.01 | 0.01 | 74 | 1014.0 |
| 20260508010659 | 48 | 258 | 0.0 | 0.0 | 0.00 | 0.01 | 0.01 | 73 | 1013.8 |
| 20260508010157 | 48 | 258 | 0.0 | 0.0 | 0.00 | 0.01 | 0.01 | 70 | 1013.8 |
| 20260508005654 | 49 | 258 | 0.0 | 0.0 | 0.00 | 0.01 | 0.01 | 68 | 1013.8 |
| 20260508005151 | 50 | 257 | 0.0 | 0.0 | 0.00 | 0.01 | 0.01 | 66 | 1013.5 |
| 20260508004646 | 51 | 258 | 0.0 | 0.0 | 0.00 | 0.01 | 0.01 | 63 | 1013.6 |
| 20260508004143 | 51 | 258 | 0.0 | 0.0 | 0.00 | 0.01 | 0.01 | 58 | 1013.7 |
| 20260508003639 | 52 | 258 | 0.0 | 0.0 | 0.00 | 0.01 | 0.01 | 57 | 1013.4 |
| 20260508003137 | 53 | 258 | 0.0 | 0.0 | 0.00 | 0.01 | 0.01 | 57 | 1013.4 |
| 20260508002633 | 53 | 213 | 0.0 | 0.0 | 0.00 | 0.01 | 0.01 | 57 | 1013.4 |
| 20260508002131 | 54 | 269 | 0.0 | 0.0 | 0.00 | 0.01 | 0.01 | 52 | 1013.3 |
| 20260508001631 | 55 | 270 | 0.0 | 0.0 | 0.00 | 0.01 | 0.01 | 49 | 1013.3 |
| 20260508001128 | 56 | 283 | 1.0 | 1.0 | 0.00 | 0.01 | 0.01 | 43 | 1013.1 |
| 20260508000623 | 57 | 307 | 0.0 | 2.0 | 0.00 | 0.01 | 0.01 | 46 | 1013.2 |
| 20260508000121 | 57 | 319 | 2.0 | 4.0 | 0.00 | 0.01 | 0.01 | 41 | 1013.1 |
| 20260507235618 | 58 | 307 | 1.0 | 2.0 | 0.00 | 0.01 | 0.01 | 41 | 1012.9 |
| 20260507235115 | 58 | 309 | 4.0 | 6.0 | 0.00 | 0.01 | 0.01 | 39 | 1012.6 |
| 20260507234612 | 59 | 269 | 4.0 | 7.0 | 0.00 | 0.01 | 0.01 | 36 | 1013.0 |
| 20260507234108 | 59 | 309 | 1.0 | 3.0 | 0.00 | 0.01 | 0.01 | 39 | 1012.8 |
| 20260507233605 | 60 | 273 | 3.0 | 8.0 | 0.00 | 0.01 | 0.01 | 35 | 1012.7 |
| 20260507233104 | 60 | 302 | 4.0 | 6.0 | 0.00 | 0.01 | 0.01 | 35 | 1012.9 |
| 20260507232600 | 61 | 308 | 7.0 | 10.0 | 0.00 | 0.01 | 0.01 | 34 | 1012.7 |
| 20260507232057 | 61 | 316 | 3.0 | 6.0 | 0.00 | 0.01 | 0.01 | 35 | 1012.5 |
| 20260507231553 | 61 | 278 | 2.0 | 4.0 | 0.00 | 0.01 | 0.01 | 40 | 1012.5 |
| 20260507231051 | 61 | 313 | 6.0 | 8.0 | 0.00 | 0.01 | 0.01 | 36 | 1012.5 |
| 20260507230547 | 61 | 304 | 9.0 | 11.0 | 0.00 | 0.01 | 0.01 | 35 | 1012.6 |
| 20260507230044 | 62 | 311 | 6.0 | 10.0 | 0.00 | 0.01 | 0.01 | 36 | 1012.6 |
| 20260507225538 | 62 | 316 | 4.0 | 4.0 | 0.00 | 0.01 | 0.01 | 38 | 1012.3 |
| 20260507225035 | 62 | 310 | 8.0 | 11.0 | 0.00 | 0.01 | 0.01 | 36 | 1012.4 |
| 20260507224531 | 62 | 324 | 2.0 | 4.0 | 0.00 | 0.01 | 0.01 | 34 | 1012.4 |
| 20260507224028 | 62 | 257 | 6.0 | 11.0 | 0.00 | 0.01 | 0.01 | 39 | 1012.5 |
| 20260507223524 | 62 | 314 | 4.0 | 8.0 | 0.00 | 0.01 | 0.01 | 36 | 1012.2 |
| 20260507223021 | 62 | 313 | 9.0 | 16.0 | 0.00 | 0.01 | 0.01 | 36 | 1012.2 |
| 20260507222518 | 62 | 316 | 6.0 | 8.0 | 0.00 | 0.01 | 0.01 | 38 | 1012.3 |
| 20260507222015 | 60 | 285 | 4.0 | 8.0 | 0.00 | 0.01 | 0.01 | 37 | 1012.2 |
| 20260507221511 | 60 | 314 | 6.0 | 10.0 | 0.00 | 0.01 | 0.01 | 39 | 1012.2 |
| 20260507221008 | 61 | 312 | 6.0 | 8.0 | 0.00 | 0.01 | 0.01 | 39 | 1012.1 |
| 20260507220505 | 63 | 305 | 7.0 | 13.0 | 0.00 | 0.01 | 0.01 | 40 | 1012.1 |
| 20260507220002 | 62 | 330 | 7.0 | 11.0 | 0.00 | 0.01 | 0.01 | 35 | 1012.1 |
| 20260507215458 | 62 | 356 | 1.0 | 10.0 | 0.00 | 0.01 | 0.01 | 37 | 1011.8 |
| 20260507214956 | 64 | 320 | 9.0 | 11.0 | 0.00 | 0.01 | 0.01 | 35 | 1011.7 |
| 20260507214453 | 63 | 283 | 3.0 | 7.0 | 0.00 | 0.01 | 0.01 | 38 | 1011.6 |
| 20260507213949 | 64 | 318 | 4.0 | 9.0 | 0.00 | 0.01 | 0.01 | 37 | 1011.7 |
| 20260507213446 | 63 | 319 | 9.0 | 13.0 | 0.00 | 0.01 | 0.01 | 39 | 1011.8 |
| 20260507212943 | 61 | 317 | 6.0 | 8.0 | 0.00 | 0.01 | 0.01 | 39 | 1011.7 |
| 20260507212438 | 61 | 313 | 4.0 | 7.0 | 0.00 | 0.01 | 0.01 | 43 | 1011.9 |
| 20260507211936 | 63 | 317 | 7.0 | 11.0 | 0.00 | 0.01 | 0.01 | 42 | 1011.6 |
| 20260507211432 | 65 | 302 | 5.0 | 9.0 | 0.00 | 0.01 | 0.01 | 38 | 1011.3 |
| 20260507210929 | 64 | 249 | 1.0 | 8.0 | 0.00 | 0.01 | 0.01 | 34 | 1011.3 |
| 20260507210426 | 62 | 300 | 7.0 | 11.0 | 0.00 | 0.01 | 0.01 | 40 | 1011.6 |
| 20260507205923 | 61 | 326 | 1.0 | 7.0 | 0.00 | 0.01 | 0.01 | 40 | 1011.4 |
| 20260507205420 | 64 | 331 | 8.0 | 9.0 | 0.00 | 0.01 | 0.01 | 40 | 1011.4 |
| 20260507204916 | 62 | 30 | 3.0 | 4.0 | 0.00 | 0.01 | 0.01 | 39 | 1011.2 |
| 20260507204412 | 62 | 250 | 2.0 | 4.0 | 0.00 | 0.01 | 0.01 | 40 | 1011.4 |
| 20260507203910 | 62 | 314 | 8.0 | 11.0 | 0.00 | 0.01 | 0.01 | 40 | 1011.6 |
| 20260507203408 | 62 | 308 | 9.0 | 13.0 | 0.00 | 0.01 | 0.01 | 38 | 1011.7 |
| 20260507202904 | 61 | 250 | 8.0 | 11.0 | 0.00 | 0.01 | 0.01 | 44 | 1011.6 |
| 20260507202400 | 64 | 324 | 2.0 | 3.0 | 0.00 | 0.01 | 0.01 | 38 | 1011.3 |
| 20260507201856 | 64 | 320 | 2.0 | 6.0 | 0.00 | 0.01 | 0.01 | 39 | 1011.4 |
| 20260507201351 | 64 | 314 | 2.0 | 7.0 | 0.00 | 0.01 | 0.01 | 44 | 1011.4 |
| 20260507200848 | 64 | 308 | 6.0 | 10.0 | 0.00 | 0.01 | 0.01 | 42 | 1011.5 |
| 20260507200344 | 64 | 328 | 3.0 | 6.0 | 0.00 | 0.01 | 0.01 | 40 | 1011.8 |
| 20260507195840 | 64 | 297 | 9.0 | 14.0 | 0.00 | 0.01 | 0.01 | 43 | 1011.6 |
| 20260507195338 | 63 | 255 | 7.0 | 8.0 | 0.00 | 0.01 | 0.01 | 37 | 1011.7 |
| 20260507194835 | 64 | 278 | 5.0 | 10.0 | 0.00 | 0.01 | 0.01 | 45 | 1011.9 |
| 20260507194331 | 64 | 314 | 4.0 | 7.0 | 0.00 | 0.01 | 0.01 | 40 | 1011.7 |
| 20260507193828 | 63 | 323 | 3.0 | 6.0 | 0.00 | 0.01 | 0.01 | 39 | 1012.2 |
| 20260507193325 | 62 | 316 | 5.0 | 10.0 | 0.00 | 0.01 | 0.01 | 42 | 1012.2 |
| 20260507192820 | 60 | 309 | 7.0 | 11.0 | 0.00 | 0.01 | 0.01 | 43 | 1012.1 |
| 20260507192318 | 60 | 314 | 5.0 | 11.0 | 0.00 | 0.01 | 0.01 | 44 | 1012.4 |
| 20260507191814 | 60 | 337 | 6.0 | 10.0 | 0.00 | 0.01 | 0.01 | 47 | 1012.3 |
| 20260507191310 | 62 | 308 | 7.0 | 14.0 | 0.00 | 0.01 | 0.01 | 46 | 1012.1 |
| 20260507190808 | 63 | 330 | 6.0 | 10.0 | 0.00 | 0.01 | 0.01 | 40 | 1012.3 |
| 20260507190306 | 64 | 311 | 5.0 | 7.0 | 0.00 | 0.01 | 0.01 | 39 | 1012.1 |
| 20260507185804 | 63 | 314 | 3.0 | 7.0 | 0.00 | 0.01 | 0.01 | 46 | 1012.0 |
| 20260507185300 | 63 | 310 | 4.0 | 8.0 | 0.00 | 0.01 | 0.01 | 41 | 1012.1 |
| 20260507184758 | 62 | 309 | 5.0 | 8.0 | 0.00 | 0.01 | 0.01 | 49 | 1012.3 |
| 20260507184256 | 63 | 337 | 6.0 | 8.0 | 0.00 | 0.01 | 0.01 | 41 | 1012.3 |
| 20260507183752 | 63 | 329 | 6.0 | 8.0 | 0.00 | 0.01 | 0.01 | 47 | 1012.3 |
| 20260507183250 | 62 | 320 | 7.0 | 15.0 | 0.00 | 0.01 | 0.01 | 41 | 1012.3 |
| 20260507182747 | 63 | 315 | 4.0 | 8.0 | 0.00 | 0.01 | 0.01 | 45 | 1012.2 |
| 20260507182242 | 62 | 312 | 6.0 | 13.0 | 0.00 | 0.01 | 0.01 | 46 | 1012.4 |
| 20260507181739 | 60 | 306 | 6.0 | 8.0 | 0.00 | 0.01 | 0.01 | 49 | 1012.4 |
| 20260507181235 | 61 | 311 | 8.0 | 11.0 | 0.00 | 0.01 | 0.01 | 47 | 1012.3 |
| 20260507180732 | 62 | 286 | 7.0 | 10.0 | 0.00 | 0.01 | 0.01 | 43 | 1012.2 |
| 20260507180229 | 61 | 302 | 8.0 | 16.0 | 0.00 | 0.01 | 0.01 | 44 | 1012.5 |
| 20260507175724 | 61 | 255 | 2.0 | 4.0 | 0.00 | 0.01 | 0.01 | 45 | 1012.7 |
| 20260507175221 | 60 | 307 | 5.0 | 13.0 | 0.00 | 0.01 | 0.01 | 47 | 1012.7 |
| 20260507174719 | 61 | 295 | 4.0 | 9.0 | 0.00 | 0.01 | 0.01 | 48 | 1012.7 |
| 20260507174217 | 59 | 313 | 1.0 | 11.0 | 0.00 | 0.01 | 0.01 | 53 | 1012.6 |
| 20260507173714 | 61 | 310 | 5.0 | 8.0 | 0.00 | 0.01 | 0.01 | 45 | 1012.6 |
| 20260507173211 | 62 | 307 | 6.0 | 7.0 | 0.00 | 0.01 | 0.01 | 47 | 1012.8 |
| 20260507172708 | 62 | 298 | 3.0 | 7.0 | 0.00 | 0.01 | 0.01 | 44 | 1012.6 |
| 20260507172204 | 61 | 266 | 1.0 | 4.0 | 0.00 | 0.01 | 0.01 | 58 | 1012.7 |
| 20260507171704 | 61 | 313 | 8.0 | 11.0 | 0.00 | 0.01 | 0.01 | 55 | 1012.7 |
| 20260507171202 | 60 | 310 | 4.0 | 11.0 | 0.00 | 0.01 | 0.01 | 53 | 1013.0 |
| 20260507170659 | 58 | 309 | 4.0 | 8.0 | 0.00 | 0.01 | 0.01 | 53 | 1013.0 |
| 20260507170156 | 58 | 315 | 6.0 | 9.0 | 0.00 | 0.01 | 0.01 | 49 | 1013.0 |
| 20260507165651 | 60 | 305 | 2.0 | 4.0 | 0.00 | 0.01 | 0.01 | 50 | 1013.1 |
| 20260507165148 | 60 | 265 | 6.0 | 8.0 | 0.00 | 0.01 | 0.01 | 46 | 1013.0 |
| 20260507164644 | 60 | 261 | 5.0 | 6.0 | 0.00 | 0.01 | 0.01 | 45 | 1013.2 |
| 20260507164141 | 59 | 326 | 3.0 | 8.0 | 0.00 | 0.01 | 0.01 | 54 | 1013.4 |
| 20260507163633 | 59 | 326 | 3.0 | 8.0 | 0.00 | 0.01 | 0.01 | 54 | 1013.4 |
| 20260507163131 | 58 | 304 | 3.0 | 4.0 | 0.00 | 0.01 | 0.01 | 51 | 1013.4 |
| 20260507162626 | 58 | 10 | 2.0 | 4.0 | 0.00 | 0.01 | 0.01 | 56 | 1013.3 |
| 20260507162122 | 58 | 326 | 1.0 | 4.0 | 0.00 | 0.01 | 0.01 | 52 | 1013.3 |
| 20260507161618 | 59 | 306 | 1.0 | 6.0 | 0.00 | 0.01 | 0.01 | 53 | 1013.2 |
| 20260507161115 | 58 | 18 | 0.0 | 3.0 | 0.00 | 0.01 | 0.01 | 50 | 1013.4 |
| 20260507160611 | 58 | 5 | 2.0 | 6.0 | 0.00 | 0.01 | 0.01 | 56 | 1013.5 |
| 20260507160108 | 58 | 320 | 4.0 | 4.0 | 0.00 | 0.01 | 0.01 | 49 | 1013.5 |
| 20260507155603 | 57 | 264 | 6.0 | 11.0 | 0.00 | 0.01 | 0.01 | 52 | 1013.5 |
| 20260507155100 | 58 | 259 | 2.0 | 7.0 | 0.00 | 0.01 | 0.01 | 52 | 1013.7 |
| 20260507154557 | 59 | 243 | 2.0 | 7.0 | 0.00 | 0.01 | 0.01 | 49 | 1013.6 |
| 20260507154054 | 58 | 309 | 4.0 | 10.0 | 0.00 | 0.01 | 0.01 | 51 | 1013.8 |
| 20260507153551 | 57 | 311 | 2.0 | 6.0 | 0.00 | 0.01 | 0.01 | 56 | 1013.6 |
| 20260507153047 | 57 | 302 | 2.0 | 8.0 | 0.00 | 0.01 | 0.01 | 55 | 1013.9 |
| 20260507152543 | 57 | 7 | 3.0 | 6.0 | 0.00 | 0.01 | 0.01 | 55 | 1013.9 |
| 20260507152040 | 58 | 312 | 6.0 | 8.0 | 0.00 | 0.01 | 0.01 | 55 | 1013.7 |
| 20260507151536 | 58 | 318 | 0.0 | 4.0 | 0.00 | 0.01 | 0.01 | 49 | 1013.8 |
| 20260507151033 | 57 | 284 | 0.0 | 2.0 | 0.00 | 0.01 | 0.01 | 52 | 1014.0 |
| 20260507150530 | 56 | 231 | 1.0 | 4.0 | 0.00 | 0.01 | 0.01 | 50 | 1013.7 |
| 20260507150027 | 56 | 315 | 1.0 | 6.0 | 0.00 | 0.01 | 0.01 | 58 | 1013.8 |
| 20260507145521 | 58 | 301 | 1.0 | 1.0 | 0.00 | 0.01 | 0.01 | 53 | 1013.8 |
| 20260507145020 | 56 | 175 | 1.0 | 2.0 | 0.00 | 0.01 | 0.01 | 55 | 1014.0 |
| 20260507144516 | 55 | 247 | 3.0 | 3.0 | 0.00 | 0.01 | 0.01 | 57 | 1013.9 |
| 20260507144014 | 56 | 314 | 5.0 | 8.0 | 0.00 | 0.01 | 0.01 | 59 | 1014.1 |
| 20260507143511 | 57 | 331 | 0.0 | 3.0 | 0.00 | 0.01 | 0.01 | 57 | 1014.1 |
| 20260507143008 | 56 | 253 | 3.0 | 3.0 | 0.00 | 0.01 | 0.01 | 57 | 1014.1 |
| 20260507142503 | 56 | 241 | 4.0 | 4.0 | 0.00 | 0.01 | 0.01 | 56 | 1014.2 |
| 20260507142000 | 56 | 277 | 2.0 | 3.0 | 0.00 | 0.01 | 0.01 | 60 | 1014.5 |
| 20260507141456 | 56 | 301 | 1.0 | 2.0 | 0.00 | 0.01 | 0.01 | 61 | 1014.4 |
| 20260507140953 | 55 | 13 | 2.0 | 3.0 | 0.00 | 0.01 | 0.01 | 61 | 1014.6 |
| 20260507140450 | 55 | 309 | 2.0 | 4.0 | 0.00 | 0.01 | 0.01 | 66 | 1014.5 |
| 20260507135947 | 55 | 260 | 2.0 | 4.0 | 0.00 | 0.01 | 0.01 | 61 | 1014.6 |
| 20260507135444 | 55 | 312 | 3.0 | 4.0 | 0.00 | 0.01 | 0.01 | 65 | 1014.7 |
| 20260507134941 | 55 | 314 | 2.0 | 4.0 | 0.00 | 0.01 | 0.01 | 67 | 1014.7 |
| 20260507134438 | 55 | 26 | 3.0 | 4.0 | 0.00 | 0.01 | 0.01 | 65 | 1014.6 |
| 20260507133934 | 55 | 22 | 2.0 | 2.0 | 0.00 | 0.01 | 0.01 | 63 | 1014.9 |
| 20260507133430 | 54 | 22 | 0.0 | 2.0 | 0.00 | 0.01 | 0.01 | 64 | 1014.8 |
| 20260507132929 | 54 | 279 | 2.0 | 2.0 | 0.00 | 0.01 | 0.01 | 68 | 1014.8 |
| 20260507132424 | 53 | 270 | 0.0 | 2.0 | 0.00 | 0.01 | 0.01 | 72 | 1014.8 |
| 20260507131921 | 54 | 227 | 0.0 | 0.0 | 0.00 | 0.01 | 0.01 | 71 | 1014.9 |
| 20260507131418 | 53 | 199 | 0.0 | 2.0 | 0.00 | 0.01 | 0.01 | 74 | 1014.9 |
| 20260507130915 | 53 | 198 | 0.0 | 1.0 | 0.00 | 0.01 | 0.01 | 72 | 1014.9 |
| 20260507130412 | 53 | 198 | 1.0 | 2.0 | 0.00 | 0.01 | 0.01 | 79 | 1014.8 |
| 20260507125911 | 54 | 280 | 1.0 | 2.0 | 0.00 | 0.01 | 0.01 | 79 | 1014.8 |
| 20260507125409 | 53 | 281 | 0.0 | 1.0 | 0.00 | 0.01 | 0.01 | 81 | 1014.8 |
| 20260507124906 | 53 | 281 | 0.0 | 0.0 | 0.00 | 0.01 | 0.01 | 88 | 1014.9 |
| 20260507124401 | 51 | 280 | 0.0 | 0.0 | 0.00 | 0.01 | 0.01 | 90 | 1015.1 |
| 20260507123900 | 50 | 280 | 0.0 | 0.0 | 0.00 | 0.01 | 0.01 | 90 | 1014.9 |
| 20260507123357 | 50 | 280 | 0.0 | 0.0 | 0.00 | 0.01 | 0.01 | 91 | 1014.9 |
| 20260507122853 | 49 | 280 | 0.0 | 0.0 | 0.00 | 0.01 | 0.01 | 93 | 1015.2 |
| 20260507122349 | 49 | 280 | 1.0 | 2.0 | 0.00 | 0.01 | 0.01 | 95 | 1015.1 |
| 20260507121845 | 48 | 281 | 0.0 | 0.0 | 0.00 | 0.01 | 0.01 | 97 | 1015.1 |
| 20260507121341 | 47 | 281 | 0.0 | 0.0 | 0.00 | 0.01 | 0.01 | 97 | 1014.9 |
| 20260507120837 | 48 | 281 | 0.0 | 0.0 | 0.00 | 0.01 | 0.01 | 99 | 1014.9 |
| 20260507120334 | 47 | 281 | 0.0 | 0.0 | 0.00 | 0.01 | 0.01 | 99 | 1015.2 |
| 20260507115830 | 47 | 281 | 0.0 | 0.0 | 0.00 | 0.01 | 0.01 | 99 | 1014.9 |
| 20260507115326 | 47 | 281 | 0.0 | 1.0 | 0.00 | 0.01 | 0.01 | 99 | 1015.1 |
| 20260507114822 | 47 | 281 | 0.0 | 0.0 | 0.00 | 0.01 | 0.01 | 99 | 1015.1 |
| 20260507114319 | 46 | 281 | 0.0 | 0.0 | 0.00 | 0.01 | 0.01 | 99 | 1014.8 |
| 20260507113817 | 46 | 281 | 0.0 | 0.0 | 0.00 | 0.01 | 0.01 | 99 | 1014.9 |
| 20260507113313 | 46 | 281 | 1.0 | 1.0 | 0.00 | 0.01 | 0.01 | 99 | 1014.7 |
| 20260507112811 | 46 | 281 | 1.0 | 1.0 | 0.00 | 0.01 | 0.01 | 99 | 1014.6 |
| 20260507112308 | 46 | 281 | 0.0 | 0.0 | 0.00 | 0.01 | 0.01 | 99 | 1014.5 |
| 20260507111806 | 46 | 281 | 0.0 | 0.0 | 0.00 | 0.01 | 0.01 | 99 | 1014.5 |
| 20260507111302 | 46 | 281 | 0.0 | 0.0 | 0.00 | 0.01 | 0.01 | 99 | 1014.5 |
| 20260507110758 | 46 | 281 | 2.0 | 2.0 | 0.00 | 0.01 | 0.01 | 99 | 1014.5 |
| 20260507110255 | 46 | 279 | 0.0 | 0.0 | 0.00 | 0.01 | 0.01 | 99 | 1014.4 |
| 20260507105752 | 46 | 279 | 0.0 | 1.0 | 0.00 | 0.01 | 0.01 | 99 | 1014.3 |
| 20260507105247 | 46 | 279 | 0.0 | 1.0 | 0.00 | 0.01 | 0.01 | 99 | 1014.3 |
| 20260507104745 | 46 | 279 | 0.0 | 0.0 | 0.00 | 0.01 | 0.01 | 99 | 1014.1 |
| 20260507104242 | 46 | 279 | 0.0 | 0.0 | 0.00 | 0.01 | 0.01 | 99 | 1014.2 |
| 20260507103738 | 46 | 272 | 0.0 | 1.0 | 0.00 | 0.01 | 0.01 | 99 | 1014.0 |
| 20260507103234 | 46 | 272 | 0.0 | 0.0 | 0.00 | 0.01 | 0.01 | 99 | 1014.2 |
| 20260507102730 | 46 | 280 | 0.0 | 0.0 | 0.00 | 0.01 | 0.01 | 99 | 1014.3 |
| 20260507102227 | 46 | 280 | 0.0 | 0.0 | 0.00 | 0.01 | 0.01 | 99 | 1014.1 |
| 20260507101723 | 46 | 280 | 0.0 | 0.0 | 0.00 | 0.01 | 0.01 | 99 | 1014.3 |
| 20260507101219 | 46 | 280 | 0.0 | 0.0 | 0.00 | 0.01 | 0.01 | 99 | 1014.3 |
| 20260507100716 | 46 | 280 | 0.0 | 0.0 | 0.00 | 0.01 | 0.01 | 99 | 1014.1 |
| 20260507100214 | 46 | 280 | 0.0 | 0.0 | 0.00 | 0.01 | 0.01 | 99 | 1013.9 |
| 20260507095712 | 46 | 279 | 0.0 | 0.0 | 0.00 | 0.01 | 0.01 | 99 | 1014.1 |
| 20260507095208 | 45 | 279 | 0.0 | 0.0 | 0.00 | 0.01 | 0.01 | 99 | 1014.2 |
| 20260507094705 | 46 | 279 | 0.0 | 0.0 | 0.00 | 0.01 | 0.01 | 99 | 1014.0 |
| 20260507094202 | 45 | 279 | 0.0 | 0.0 | 0.00 | 0.01 | 0.01 | 99 | 1014.0 |
| 20260507093659 | 45 | 279 | 0.0 | 0.0 | 0.00 | 0.01 | 0.01 | 99 | 1013.6 |
| 20260507093158 | 46 | 279 | 0.0 | 0.0 | 0.00 | 0.01 | 0.01 | 99 | 1013.9 |
| 20260507092654 | 46 | 279 | 0.0 | 0.0 | 0.00 | 0.01 | 0.01 | 99 | 1014.1 |
| 20260507092151 | 46 | 279 | 0.0 | 0.0 | 0.00 | 0.01 | 0.01 | 99 | 1014.4 |
| 20260507091647 | 45 | 279 | 0.0 | 0.0 | 0.00 | 0.01 | 0.01 | 99 | 1013.9 |
| 20260507091144 | 45 | 279 | 0.0 | 0.0 | 0.00 | 0.01 | 0.01 | 99 | 1014.0 |
| 20260507090639 | 46 | 280 | 1.0 | 1.0 | 0.00 | 0.01 | 0.01 | 98 | 1013.9 |
| 20260507090137 | 46 | 295 | 0.0 | 0.0 | 0.00 | 0.01 | 0.01 | 98 | 1013.7 |
| 20260507085634 | 47 | 295 | 0.0 | 0.0 | 0.00 | 0.01 | 0.01 | 98 | 1013.6 |
| 20260507085130 | 47 | 296 | 0.0 | 0.0 | 0.00 | 0.01 | 0.01 | 98 | 1014.0 |
| 20260507084627 | 47 | 296 | 0.0 | 0.0 | 0.00 | 0.01 | 0.01 | 98 | 1014.0 |
| 20260507084124 | 48 | 296 | 0.0 | 0.0 | 0.00 | 0.01 | 0.01 | 98 | 1013.8 |
| 20260507083620 | 48 | 296 | 0.0 | 0.0 | 0.00 | 0.01 | 0.01 | 98 | 1013.8 |
| 20260507083118 | 48 | 296 | 0.0 | 0.0 | 0.00 | 0.01 | 0.01 | 98 | 1013.7 |
| 20260507082613 | 48 | 295 | 0.0 | 0.0 | 0.00 | 0.01 | 0.01 | 98 | 1013.8 |
| 20260507082109 | 48 | 295 | 0.0 | 0.0 | 0.00 | 0.01 | 0.01 | 98 | 1014.0 |
| 20260507081606 | 48 | 295 | 0.0 | 0.0 | 0.00 | 0.01 | 0.01 | 98 | 1013.8 |
| 20260507081103 | 49 | 295 | 0.0 | 0.0 | 0.00 | 0.01 | 0.01 | 98 | 1014.1 |
| 20260507080559 | 49 | 295 | 0.0 | 0.0 | 0.00 | 0.01 | 0.01 | 98 | 1013.9 |
| 20260507080056 | 49 | 295 | 0.0 | 0.0 | 0.00 | 0.01 | 0.01 | 98 | 1013.8 |
| 20260507075551 | 49 | 296 | 0.0 | 0.0 | 0.00 | 0.01 | 0.01 | 98 | 1014.0 |
| 20260507075047 | 49 | 295 | 0.0 | 0.0 | 0.00 | 0.01 | 0.01 | 98 | 1013.9 |
| 20260507074544 | 49 | 295 | 0.0 | 0.0 | 0.00 | 0.01 | 0.01 | 98 | 1013.7 |
| 20260507074043 | 49 | 295 | 0.0 | 0.0 | 0.00 | 0.01 | 0.01 | 98 | 1013.8 |
| 20260507073538 | 49 | 295 | 0.0 | 0.0 | 0.00 | 0.01 | 0.01 | 98 | 1014.1 |
| 20260507073035 | 49 | 296 | 0.0 | 1.0 | 0.00 | 0.01 | 0.01 | 99 | 1014.1 |
| 20260507072533 | 50 | 299 | 2.0 | 2.0 | 0.00 | 0.01 | 0.01 | 99 | 1014.0 |
| 20260507072030 | 50 | 301 | 1.0 | 2.0 | 0.00 | 0.01 | 0.01 | 99 | 1013.9 |
| 20260507071527 | 50 | 301 | 0.0 | 0.0 | 0.00 | 0.01 | 0.01 | 99 | 1014.0 |
| 20260507071024 | 50 | 301 | 0.0 | 0.0 | 0.00 | 0.01 | 0.01 | 99 | 1013.8 |
| 20260507070521 | 50 | 301 | 0.0 | 0.0 | 0.00 | 0.01 | 0.01 | 99 | 1013.8 |
| 20260507070018 | 50 | 301 | 0.0 | 0.0 | 0.00 | 0.01 | 0.01 | 99 | 1013.9 |
| 20260507065514 | 50 | 301 | 0.0 | 0.0 | 0.00 | 0.01 | 0.01 | 99 | 1013.8 |
| 20260507065011 | 50 | 301 | 0.0 | 0.0 | 0.00 | 0.01 | 0.01 | 99 | 1014.0 |
| 20260507064509 | 50 | 301 | 0.0 | 0.0 | 0.00 | 0.01 | 0.01 | 99 | 1014.0 |
| 20260507064008 | 50 | 300 | 0.0 | 1.0 | 0.00 | 0.01 | 0.01 | 99 | 1013.9 |